Location: Riverside Cemetery
(38.3047°N, 99.7773°W)
Time: 07:13:07
(UTC+00:00)

CZ-2C R/B - Pass Details

Date: 19 September 2020
Orbit: 391 x 588 km, 35.0° (Epoch: 19 October)

Event Time Altitude Azimuth Distance (km) Brightness Sun altitude
Rises 02:52:42 0° 265° (W) 2,421 5.5 -25.8°
Reaches altitude 10° 02:54:57 10° 259° (W) 1,519 4.2 -26.2°
Enters shadow 02:56:08 19° 251° (WSW) 1,069 3.2 -26.4°
